Theta_e
351 349 348 347 346 347 344 342 341 341 344 346 347 349 350 352 353 350 348 346 345 341 335 333 332 332 332 333 333 333 333 332 331 330 329 329 328 329 330 329 330 330 330
351 347 347 345 347 348 343 342 343 347 349 352 351 351 352 354 353 351 346 342 343 340 334 331 330 329 330 331 333 333 332 331 330 330 328 328 327 327 328 328 328 328 327
352 349 345 345 347 347 346 343 344 346 349 353 352 353 352 352 347 348 345 340 336 336 333 330 329 328 329 330 332 332 331 330 329 329 328 327 327 327 326 326 326 326 326
351 349 346 347 350 348 346 344 345 346 347 349 350 350 350 350 348 347 343 340 337 334 334 330 329 328 329 329 330 330 330 330 329 328 328 328 327 327 327 327 327 326 326
347 347 346 350 353 349 347 346 347 347 345 345 342 342 344 348 350 345 342 338 337 334 334 331 330 331 333 330 329 330 330 331 330 330 329 328 328 327 327 327 327 325 324
347 348 348 349 350 348 347 348 347 345 343 341 337 337 339 342 345 345 341 337 333 332 334 335 333 332 330 333 332 333 332 332 331 330 330 328 328 328 328 327 327 326 324
347 352 349 351 350 348 349 348 344 341 335 337 334 332 330 330 329 330 332 332 330 330 332 334 332 332 330 327 327 329 331 332 331 331 329 327 327 328 328 328 327 326 324
348 350 352 351 351 346 347 344 342 337 335 335 334 330 325 324 325 325 326 327 328 329 331 331 331 329 328 328 329 327 325 326 326 326 324 324 324 325 325 325 326 327 325
347 351 352 351 350 347 343 343 343 342 335 332 334 334 323 322 320 323 323 324 327 328 329 329 326 325 325 325 324 321 319 319 321 322 321 322 323 324 324 324 325 325 325
345 351 353 351 349 345 342 343 343 342 338 331 324 326 327 330 321 317 321 322 323 322 324 323 322 320 320 320 320 317 315 316 318 318 318 319 320 320 321 322 322 322 323
347 349 351 349 345 342 344 343 341 338 334 330 325 321 322 322 323 320 315 317 322 321 320 320 319 317 316 316 316 314 312 313 313 314 315 316 316 317 318 319 319 320 321
345 348 347 346 344 342 338 338 335 332 329 326 323 322 320 320 319 318 316 317 318 320 321 320 317 314 313 313 313 312 310 310 310 311 311 311 312 313 314 316 317 318 319
342 341 341 339 338 334 330 331 328 326 325 323 323 319 321 320 320 319 319 317 315 319 320 321 316 314 311 310 310 312 310 309 310 309 310 310 310 311 312 312 313 315 316
341 340 340 337 330 329 327 327 324 323 324 322 322 322 321 320 321 321 320 317 314 316 319 316 318 311 310 309 309 310 308 308 307 308 307 308 309 309 310 310 309 310 311
341 338 335 328 329 327 326 325 322 322 321 320 320 320 318 317 317 317 317 317 314 310 311 314 309 310 308 309 307 307 306 306 306 305 306 308 308 308 309 308 307 307 307
334 333 329 326 325 325 323 322 320 318 319 316 316 315 314 313 313 312 312 312 312 311 307 310 307 308 308 306 306 306 305 305 305 304 306 306 306 307 306 305 306 306 307
332 328 326 322 322 321 320 319 316 315 314 313 312 311 310 312 309 309 309 309 308 308 305 306 307 308 307 306 305 306 304 304 305 304 305 305 304 304 304 304 304 305 306
329 325 321 318 318 318 318 315 313 311 311 308 308 309 308 308 308 308 305 305 305 305 304 302 305 303 304 305 305 304 303 302 304 304 304 304 303 302 303 303 304 305 303
323 321 317 315 314 313 311 311 309 307 307 307 308 307 306 307 306 304 304 303 303 304 304 302 301 303 303 303 302 303 303 303 303 304 304 304 302 302 302 303 303 303 302
320 317 316 314 311 308 306 305 304 305 305 305 305 305 304 304 304 305 304 304 304 303 303 301 301 301 301 303 302 299 298 300 300 303 303 302 303 302 302 302 303 303 301
319 318 314 311 308 306 304 303 304 304 304 303 305 305 305 304 303 302 302 303 303 301 301 300 299 299 299 299 298 299 298 298 300 301 300 299 301 300 300 302 302 302 301
318 317 313 309 307 304 300 301 303 302 301 301 300 300 303 302 301 300 300 299 300 301 300 299 297 298 299 300 300 298 298 296 294 302 298 297 300 299 299 300 301 300 300
319 313 312 308 302 299 297 297 300 301 301 300 300 300 299 298 300 300 298 299 298 298 297 300 298 297 298 298 299 298 298 297 297 299 298 294 298 297 299 301 300 300 300
315 313 311 305 298 297 296 296 298 302 300 300 300 300 300 299 299 299 299 298 298 298 298 298 299 298 297 298 298 298 299 298 301 300 298 291 297 295 299 301 300 300 299
311 309 307 301 295 296 294 295 297 300 298 299 299 299 299 297 293 295 298 297 297 297 297 296 295 294 293 294 295 298 296 296 295 296 296 292 294 293 296 298 298 299 298
307 308 303 297 297 295 294 295 298 299 298 297 298 297 294 295 291 293 298 297 295 296 296 297 298 298 298 298 297 300 297 294 291 291 295 291 292 292 291 297 296 297 297
Wind_Speed
8 7 6 5 4 3 4 4 4 4 4 4 4 3 6 7 7 4 5 10 7 6 6 4 4 4 5 5 7 10 12 12 13 14 14 13 13 13 13 13 12 14 14
8 8 7 6 4 4 4 4 4 3 2 3 3 6 6 7 7 6 5 5 6 5 3 3 2 2 3 4 5 8 9 11 12 11 11 11 12 12 13 14 14 14 14
9 8 7 5 5 5 6 5 5 4 3 3 4 4 6 6 5 6 6 5 6 5 2 2 2 1 3 4 6 8 8 10 10 9 10 10 10 10 11 11 12 13 14
11 8 7 7 6 5 5 5 5 4 4 4 4 4 4 4 5 6 5 5 3 1 5 2 1 1 3 4 4 7 9 9 9 9 8 9 10 12 12 13 13 14 15
12 9 7 7 8 6 6 5 5 5 5 5 5 3 3 2 3 3 5 5 3 2 1 3 3 4 6 4 6 7 9 11 10 12 13 11 11 12 13 13 13 13 14
13 10 7 7 7 6 6 6 7 6 5 5 4 4 4 3 2 2 2 2 1 2 2 2 2 2 7 8 9 10 12 13 14 15 14 15 13 13 14 15 14 14 13
13 11 8 8 7 8 8 9 8 9 6 5 5 4 5 5 5 3 2 0 2 2 1 1 2 3 2 5 9 13 13 14 15 18 18 18 17 17 17 17 17 14 13
13 11 10 9 9 6 10 11 10 7 4 4 2 3 3 3 3 4 3 2 2 2 1 3 4 5 5 5 9 15 17 16 16 17 18 18 19 19 19 20 19 15 14
13 12 11 10 10 8 9 11 10 8 6 3 1 1 3 4 5 2 4 4 3 2 3 5 7 7 7 6 8 11 18 17 17 18 19 20 20 20 21 21 20 18 16
15 14 13 11 10 7 8 8 7 6 5 5 4 2 2 1 3 4 3 4 4 6 6 5 6 7 9 7 9 12 17 17 19 20 20 21 21 22 21 21 21 20 20
14 14 12 11 10 8 9 10 7 6 4 5 4 4 3 3 3 1 3 4 3 4 5 4 5 5 8 8 8 11 18 18 19 19 18 19 20 21 21 21 20 20 20
11 12 12 10 10 10 9 9 8 7 6 6 4 4 3 1 2 0 2 3 3 3 3 3 5 6 7 8 9 16 15 16 17 17 17 19 19 20 21 20 19 20 20
10 10 10 9 9 10 9 10 10 10 9 8 7 6 6 6 4 3 1 1 2 3 3 2 4 6 7 8 9 17 16 17 18 18 18 18 19 19 17 18 19 20 20
11 12 12 13 11 12 12 12 10 9 11 9 10 9 8 6 6 4 3 3 3 3 2 5 3 8 7 8 11 18 13 17 21 18 18 18 17 18 18 16 17 19 18
10 13 12 12 12 13 14 13 11 10 11 9 11 11 8 7 6 5 5 4 5 4 3 4 5 8 7 7 11 13 14 21 17 18 19 17 16 18 18 17 17 16 18
13 15 14 13 12 14 14 14 11 9 13 9 9 11 9 6 6 6 5 4 5 4 4 4 5 7 7 9 13 14 15 19 18 17 18 19 18 18 18 18 16 16 16
16 17 16 12 13 15 15 13 11 13 15 12 11 11 10 8 6 5 5 5 5 4 4 3 3 5 7 11 13 14 14 14 12 14 17 18 19 19 20 17 15 15 13
16 16 15 12 13 14 14 15 13 13 13 13 11 11 10 7 8 6 6 7 5 5 4 5 5 6 8 11 13 14 14 13 13 12 18 17 20 20 18 16 15 12 12
17 16 15 15 9 13 11 14 13 14 13 12 11 11 10 9 9 7 7 5 4 4 4 5 5 6 8 10 12 13 14 15 12 13 17 19 19 17 17 16 15 17 13
20 18 16 17 15 10 8 16 12 14 14 14 12 12 11 11 9 8 7 6 5 4 4 5 6 7 8 11 10 12 13 14 14 11 15 16 14 16 16 15 15 19 15
20 22 24 17 18 11 7 11 13 13 15 15 13 13 12 13 14 10 5 5 5 5 6 7 7 8 9 12 14 13 13 14 14 10 13 11 11 10 9 11 12 18 18
19 20 18 19 17 11 13 15 15 15 14 15 13 12 10 12 14 13 11 13 11 9 10 8 9 9 12 11 13 12 13 14 14 10 11 12 9 9 8 7 14 17 18
20 19 19 21 18 14 17 17 18 14 13 13 12 10 9 8 6 7 7 7 13 14 12 9 9 9 11 12 13 14 14 13 13 12 11 10 11 11 8 6 16 19 16
20 18 18 18 17 16 18 18 20 14 14 15 13 12 11 8 5 4 6 9 11 11 11 8 7 9 9 10 12 12 12 14 11 8 12 8 11 11 10 6 18 19 20
18 17 18 19 17 18 21 16 17 14 16 15 12 12 10 9 6 5 9 11 10 10 7 4 5 4 6 4 9 11 12 12 12 9 11 10 8 9 6 8 10 19 20
19 17 18 14 24 18 16 15 15 13 16 12 13 12 13 10 11 9 11 9 9 8 9 10 9 9 11 11 9 12 11 12 10 5 10 9 8 7 4 5 8 9 9
Wind_Direction
173 169 166 177 172 156 160 184 187 190 190 198 195 190 164 169 162 139 164 163 158 137 117 138 106 89 62 51 30 23 23 13 13 12 7 1 358 353 348 351 354 354 354
175 170 169 174 176 178 176 184 184 183 208 236 185 174 167 157 162 158 159 158 161 124 139 112 115 81 48 46 17 20 11 7 10 10 6 355 352 351 351 349 353 352 351
180 174 174 179 176 183 190 185 193 201 204 147 124 150 146 147 167 162 178 177 156 135 106 142 146 93 35 26 16 2 2 2 8 2 352 351 346 350 350 348 349 344 343
182 188 178 176 177 182 190 187 186 187 168 161 124 115 138 154 177 179 187 191 191 192 164 182 198 322 344 4 5 356 347 350 357 346 336 336 337 338 343 342 344 344 340
185 190 196 179 179 185 193 189 187 173 157 141 114 110 76 176 179 174 184 194 189 241 233 124 23 359 350 324 347 336 335 331 341 337 344 332 331 328 327 328 328 333 332
188 185 185 189 186 185 166 158 148 145 144 125 114 74 46 58 85 121 186 213 186 240 229 256 282 87 13 352 354 339 328 325 327 332 336 343 323 315 314 315 315 319 327
191 186 185 190 196 188 160 150 142 138 114 133 131 103 77 73 68 55 19 279 212 243 292 288 301 1 7 16 11 352 346 336 334 335 347 341 332 323 315 310 310 306 313
196 192 188 185 186 166 153 158 158 149 130 193 184 142 168 157 111 56 41 35 330 307 294 63 45 42 13 13 28 28 13 6 354 346 341 335 328 321 316 314 310 303 304
202 200 185 179 176 186 168 164 166 174 162 158 218 286 175 226 160 119 66 24 16 28 65 84 64 49 36 25 15 10 1 355 347 340 336 333 330 327 327 324 321 313 299
198 196 194 182 175 173 157 165 168 175 176 153 128 92 41 11 198 174 144 79 83 75 67 73 66 50 29 14 9 1 352 350 350 346 342 336 337 334 332 329 324 321 317
198 193 189 181 165 170 157 156 155 164 160 143 154 149 114 116 77 271 198 164 128 90 64 61 41 32 25 8 355 1 356 354 351 344 341 340 338 336 331 326 323 321 317
183 194 185 177 159 146 154 136 129 133 108 113 123 116 133 103 101 36 236 209 271 133 90 53 42 24 15 1 354 351 352 352 348 345 345 345 341 337 328 327 330 328 323
171 173 165 153 155 135 137 131 118 114 115 115 104 100 87 75 76 61 10 92 263 190 194 82 30 21 11 356 349 348 344 344 341 344 341 335 342 336 342 344 344 338 340
161 164 164 143 137 139 130 118 109 112 109 103 105 91 89 75 62 46 22 330 241 221 171 357 36 13 7 357 354 341 337 339 333 341 338 330 333 337 330 342 350 343 337
150 154 140 129 154 137 124 120 112 118 105 106 92 89 84 76 70 59 43 10 336 324 333 110 345 25 357 350 6 344 343 346 348 349 341 338 349 344 342 350 344 336 334
144 145 145 141 143 129 120 106 113 110 103 95 91 89 82 79 74 60 49 31 24 339 317 7 11 6 2 350 1 351 350 340 359 355 346 357 352 352 354 350 343 332 334
146 145 144 135 134 126 115 106 106 111 100 99 94 94 88 80 71 66 60 42 34 347 343 62 355 25 355 356 352 350 352 351 349 7 357 357 357 354 346 340 335 332 347
140 137 125 118 125 115 118 115 118 103 107 102 100 94 87 83 77 60 58 43 35 25 352 5 17 359 6 352 353 346 349 350 343 8 350 347 358 352 349 348 346 5 9
126 118 108 99 96 94 108 105 108 110 101 96 93 89 85 81 70 59 48 48 37 28 25 18 8 2 356 5 345 356 349 346 348 343 359 349 354 353 352 357 12 14 6
125 116 111 113 85 90 105 97 112 102 101 93 89 85 80 76 77 73 64 49 34 24 34 22 12 357 356 359 354 350 348 348 344 352 354 344 349 358 357 349 343 1 359
131 131 133 128 121 112 104 112 109 103 105 100 93 88 78 79 73 57 51 40 19 25 30 20 12 359 1 353 353 346 338 343 345 351 350 337 355 351 356 343 359 355 354
138 131 123 122 114 113 131 119 115 112 106 102 99 93 96 89 78 70 75 62 44 34 40 13 8 0 2 352 343 337 334 342 343 358 345 341 356 355 349 333 356 351 353
137 130 133 127 114 121 123 120 113 107 105 99 101 100 94 81 89 102 110 103 69 59 46 27 10 11 358 347 333 333 339 336 331 344 354 335 359 347 342 343 6 347 347
133 130 127 123 125 119 119 112 106 105 103 97 94 93 86 86 72 99 81 65 52 48 33 26 18 18 5 348 337 328 331 329 328 9 11 334 340 342 332 352 2 347 351
124 125 124 123 122 117 122 125 115 114 105 97 91 81 89 85 48 24 73 65 56 36 75 65 38 351 306 315 334 332 353 335 353 355 25 334 344 324 318 346 349 354 351
119 119 117 124 123 121 126 128 127 118 114 108 93 86 61 77 59 22 65 58 57 35 15 24 18 8 1 358 351 357 349 346 356 336 11 340 338 338 322 338 347 351 353